C/2016 A1 ( PanSTARRS )

Japanese version
Home page
Updated on February 7, 2017

---------------------------------------------------------------------

* Profile

Discovery Date January 1, 2016
Magnitude 19.3 mag
Discoverer Pan-STARRS 1 telescope (Haleakala)

* Pictures

* Orbital Elements

Epoch 2017 Nov. 23.0 TT = JDT 2458080.5
T 2017 Nov. 23.35423 TT                                 MPCW
q   5.3279015            (2000.0)            P               Q
z  -0.0003828      Peri.   10.31789     -0.53515833     +0.51118453
 +/-0.0000034      Node   128.17477     +0.70123766     -0.17509560
e   1.0020396      Incl.  121.18554     +0.47103217     +0.84144632
From 106 observations 2016 Jan. 1-Nov. 3, mean residual 0".4.

* Finding Charts

* Magnitudes Graph

        m1 = 5.5 + 5 log d + 10.0 log r

---------------------------------------------------------------------

The orbital elements are published on M.P.E.C. 2016-V116.
The charts are made with StellaNavigator Ver.10 (AstroArts).
The magnitudes graphs are made with Comet for Windows.

---------------------------------------------------------------------

Copyright(C) Seiichi Yoshida (comet@aerith.net). All rights reserved.